Fryeburg, ME

11:46 PM EDT on May 20, 2018 (GMT -0400)
Eastern Slopes Regional

Weather History for KIZG - October, 2011

Change the Weather History Date:

Thursday, October 27, 2011

  Actual Average Record
Temperature  
Mean Temperature 37 °F -  
Max Temperature 42 °F 51 °F 68 °F (2000)
Min Temperature 33 °F 29 °F 21 °F (1999)
Degree Days  
Heating Degree Days 28    
Moisture  
Dew Point 37 °F    
Average Humidity 94    
Maximum Humidity 100    
Minimum Humidity 86    
Precipitation  
Precipitation 0.20 in - - ()
Sea Level Pressure  
Sea Level Pressure 29.79 in    
Wind  
Wind Speed 1 mph (WNW)    
Max Wind Speed 7 mph    
Max Gust Speed -    
Visibility 9 miles    
Events Rain , Snow    
Averages and records for this station are not official NWS values.
T = Trace of Precipitation, MM = Missing Value Source: NWS Daily Summary

Daily Weather History Graph

Daily Weather History Graph

Search for Another Location

Airport or City:

Astronomy

Oct. 27, 2011 Rise Set
Actual Time 7:13 AM EDT 5:41 PM EDT
Civil Twilight 6:43 AM EDT 6:11 PM EDT
Nautical Twilight 6:09 AM EDT 6:44 PM EDT
Astronomical Twilight 5:36 AM EDT 7:18 PM EDT
Moon 8:16 AM EDT (10/27) 6:03 PM EDT (10/27)
Length of Visible Light 11h 27m
Length of Day
10h 28m
New Moon, 1% of the Moon is Illuminated
Oct 27
New Moon
Nov 2
First Quarter
Nov 10
Full
Nov 18
Last Quarter
Nov 25
New

Hourly Weather History & Observations

Time (EDT) Temp. Windchill Dew Point Humidity Pressure Visibility Wind Dir Wind Speed Gust Speed Precip Events Conditions
2:54 AM 41.0 °F - 39.9 °F 96% 29.78 in 10.0 mi Calm Calm - 0.00 in Rain Light Rain
4:06 AM 39.2 °F - 37.4 °F 93% 29.79 in 8.0 mi Calm Calm - 0.01 in Rain Light Rain
4:54 AM 39.9 °F - 39.0 °F 97% 29.81 in 8.0 mi Calm Calm - 0.04 in Rain Light Rain
5:18 AM 39.2 °F - 39.2 °F 100% 29.80 in 8.0 mi Calm Calm - 0.02 in Rain Light Rain
5:54 AM 39.9 °F - 39.0 °F 97% 29.81 in 8.0 mi Calm Calm - 0.04 in Rain Light Rain
6:54 AM 39.0 °F - 37.9 °F 96% 29.80 in 10.0 mi Calm Calm - 0.02 in Rain Light Rain
7:54 AM 39.0 °F - 37.9 °F 96% 29.81 in 10.0 mi Calm Calm - 0.00 in   Overcast
8:54 AM 39.0 °F - 37.9 °F 96% 29.83 in 10.0 mi Calm Calm - 0.02 in Rain Light Rain
9:32 AM 39.2 °F - 39.2 °F 100% 29.81 in 10.0 mi Calm Calm - 0.02 in Rain Light Rain
9:54 AM 39.9 °F - 39.0 °F 97% 29.82 in 10.0 mi Calm Calm - 0.02 in Rain Light Rain
10:05 AM 39.2 °F - 37.4 °F 93% 29.80 in 10.0 mi Calm Calm - 0.00 in Rain Light Rain
10:17 AM 39.2 °F - 37.4 °F 93% 29.80 in 10.0 mi Calm Calm - 0.00 in Rain Light Rain
10:45 AM 39.2 °F - 37.4 °F 93% 29.80 in 10.0 mi Calm Calm - 0.01 in Rain Light Rain
10:54 AM 39.9 °F - 37.9 °F 93% 29.81 in 10.0 mi Calm Calm - 0.01 in Rain Light Rain
11:17 AM 41.0 °F 39.0 °F 37.4 °F 87% 29.78 in 10.0 mi SSE 3.5 mph - 0.01 in Rain Light Rain
11:35 AM 41.0 °F - 37.4 °F 87% 29.78 in 10.0 mi Calm Calm - 0.01 in Rain Light Rain
11:45 AM 39.2 °F - 37.4 °F 93% 29.77 in 10.0 mi Calm Calm - 0.01 in Rain Light Rain
11:54 AM 39.9 °F - 37.0 °F 89% 29.78 in 9.0 mi Calm Calm - 0.01 in Rain Light Rain
12:02 PM 39.2 °F - 37.4 °F 93% 29.76 in 8.0 mi Calm Calm - 0.00 in Rain Light Rain
12:30 PM 39.2 °F - 37.4 °F 93% 29.76 in 10.0 mi Calm Calm - 0.01 in Rain Light Rain
12:54 PM 39.9 °F 36.7 °F 37.9 °F 93% 29.76 in 10.0 mi South 4.6 mph - 0.01 in Rain Light Rain
1:46 PM 41.0 °F - 39.2 °F 93% 29.75 in 10.0 mi Calm Calm - 0.00 in   Overcast
1:54 PM 39.9 °F - 37.9 °F 93% 29.76 in 10.0 mi Calm Calm - 0.00 in Rain Light Rain
2:19 PM 41.0 °F - 39.2 °F 93% 29.73 in 10.0 mi Calm Calm - 0.00 in   Overcast
2:26 PM 39.2 °F - 39.2 °F 100% 29.73 in 10.0 mi Calm Calm - 0.00 in   Overcast
2:54 PM 41.0 °F - 39.0 °F 93% 29.74 in 10.0 mi Calm Calm - 0.00 in   Overcast
3:15 PM 41.0 °F - 39.2 °F 93% 29.73 in 10.0 mi Calm Calm - N/A   Mostly Cloudy
3:28 PM 39.2 °F 35.9 °F 35.6 °F 87% 29.74 in 8.0 mi NW 4.6 mph - 0.01 in Rain Light Rain
3:54 PM 39.0 °F - 35.1 °F 86% 29.75 in 10.0 mi Calm Calm - 0.01 in Rain Light Rain
4:54 PM 37.9 °F 35.5 °F 37.0 °F 97% 29.74 in 10.0 mi WSW 3.5 mph - 0.00 in   Overcast
5:54 PM 37.0 °F - 36.0 °F 96% 29.76 in 10.0 mi Calm Calm - N/A   Overcast
7:34 PM 35.6 °F 29.9 °F 32.0 °F 87% 29.79 in 7.0 mi North 6.9 mph - 0.00 in Snow Light Snow
7:54 PM 33.1 °F 27.7 °F 32.0 °F 96% 29.80 in 4.0 mi North 5.8 mph - 0.01 in Snow Light Snow
8:29 PM 33.8 °F 29.6 °F 32.0 °F 93% 29.80 in 2.5 mi North 4.6 mph - 0.01 in Snow Light Snow
8:37 PM 33.8 °F - 32.0 °F 93% 29.80 in 3.0 mi Calm Calm - 0.01 in Snow Light Snow
9:21 PM 33.8 °F - 32.0 °F 93% 29.82 in 3.0 mi Calm Calm - 0.01 in Snow Light Snow
9:49 PM 33.8 °F - 32.0 °F 93% 29.84 in 7.0 mi Calm Calm - 0.01 in Snow Light Snow
9:54 PM 33.1 °F 30.0 °F 32.0 °F 96% 29.85 in 7.0 mi WSW 3.5 mph - 0.01 in Snow Light Snow
10:54 PM 33.1 °F - 32.0 °F 96% 29.86 in 10.0 mi Calm Calm - 0.00 in   Overcast
11:54 PM 33.1 °F - 32.0 °F 96% 29.88 in 10.0 mi Calm Calm - N/A   Overcast